| time (UTC) | temp F | wind direction | speed MPH | gust MPH | rain 1hr in | rain 24hr in | rain mn in | humidity % | barometer mb |
| 20260903083027 | 65 | 98 | 0.0 | 2.0 | 0.00 | 0.00 | 0.00 | 89 | 1025.7 |
| 20260903081526 | 65 | 54 | 0.0 | 0.0 | 0.00 | 0.00 | 0.00 | 89 | 1025.7 |
| 20260903080023 | 65 | 341 | 0.0 | 0.0 | 0.00 | 0.00 | 0.00 | 89 | 1025.7 |
| 20260903074521 | 64 | 341 | 0.0 | 0.0 | 0.00 | 0.00 | 0.00 | 88 | 1025.7 |
| 20260903073021 | 64 | 341 | 0.0 | 0.0 | 0.00 | 0.00 | 0.00 | 88 | 1025.7 |
| 20260903071520 | 64 | 341 | 0.0 | 0.0 | 0.00 | 0.00 | 0.00 | 88 | 1025.7 |
| 20260903070019 | 64 | 341 | 0.0 | 0.0 | 0.00 | 0.00 | 0.00 | 89 | 1025.7 |
| 20260903064519 | 64 | 341 | 0.0 | 0.0 | 0.00 | 0.00 | 0.00 | 89 | 1025.7 |
| 20260903063022 | 64 | 341 | 0.0 | 0.0 | 0.00 | 0.00 | 0.00 | 90 | 1025.7 |
| 20260903061528 | 64 | 341 | 0.0 | 0.0 | 0.00 | 0.00 | 0.00 | 90 | 1025.7 |
| 20260903060019 | 64 | 341 | 0.0 | 0.0 | 0.00 | 0.00 | 0.00 | 92 | 1025.7 |
| 20260903054516 | 64 | 341 | 0.0 | 0.0 | 0.00 | 0.00 | 0.00 | 92 | 1025.7 |
| 20260903053027 | 64 | 341 | 0.0 | 0.0 | 0.00 | 0.00 | 0.00 | 93 | 1025.7 |
| 20260903051513 | 64 | 341 | 0.0 | 0.0 | 0.00 | 0.00 | 0.00 | 93 | 1025.7 |
| 20260903050012 | 64 | 341 | 0.0 | 0.0 | 0.00 | 0.00 | 0.00 | 93 | 1025.7 |
| 20260903044513 | 63 | 341 | 0.0 | 0.0 | 0.00 | 0.00 | 0.00 | 93 | 1025.7 |
| 20260903043027 | 64 | 341 | 0.0 | 0.0 | 0.00 | 0.00 | 0.00 | 93 | 1025.7 |
| 20260903041511 | 64 | 341 | 0.0 | 0.0 | 0.00 | 0.00 | 0.00 | 93 | 1025.7 |
| 20260903040010 | 64 | 341 | 0.0 | 0.0 | 0.00 | 0.00 | 0.00 | 94 | 1025.7 |
| 20260903034509 | 63 | 341 | 0.0 | 0.0 | 0.00 | 0.00 | 0.00 | 94 | 1025.7 |
| 20260903033009 | 63 | 341 | 0.0 | 0.0 | 0.00 | 0.00 | 0.00 | 93 | 1025.7 |
| 20260903031508 | 63 | 341 | 0.0 | 0.0 | 0.00 | 0.00 | 0.00 | 93 | 1025.7 |
| 20260903030008 | 63 | 341 | 0.0 | 0.0 | 0.00 | 0.00 | 0.00 | 93 | 1025.7 |
| 20260903024507 | 63 | 341 | 0.0 | 0.0 | 0.00 | 0.00 | 0.00 | 93 | 1025.7 |
| 20260903023010 | 63 | 341 | 0.0 | 0.0 | 0.00 | 0.00 | 0.00 | 93 | 1025.7 |
| 20260903021510 | 63 | 341 | 0.0 | 0.0 | 0.00 | 0.00 | 0.00 | 93 | 1025.7 |
| 20260903020006 | 63 | 341 | 0.0 | 0.0 | 0.00 | 0.00 | 0.00 | 93 | 1025.7 |
| 20260903014505 | 63 | 341 | 0.0 | 0.0 | 0.00 | 0.00 | 0.00 | 93 | 1025.7 |
| 20260903013005 | 63 | 341 | 0.0 | 0.0 | 0.00 | 0.00 | 0.00 | 93 | 1025.7 |
| 20260903011504 | 63 | 341 | 0.0 | 0.0 | 0.00 | 0.00 | 0.00 | 92 | 1025.7 |
| 20260903010006 | 63 | 341 | 0.0 | 0.0 | 0.00 | 0.00 | 0.00 | 92 | 1025.7 |
| 20260903004511 | 64 | 341 | 0.0 | 0.0 | 0.00 | 0.00 | 0.00 | 92 | 1025.7 |
| 20260903003005 | 64 | 341 | 0.0 | 0.0 | 0.00 | 0.00 | 0.00 | 92 | 1025.7 |
| 20260903001506 | 64 | 341 | 0.0 | 0.0 | 0.00 | 0.00 | 0.00 | 92 | 1025.7 |
| 20260903000005 | 64 | 341 | 0.0 | 0.0 | 0.00 | 0.00 | 0.00 | 91 | 1025.7 |
| 20260902234502 | 65 | 341 | 0.0 | 0.0 | 0.00 | 0.00 | 0.00 | 91 | 1025.7 |
| 20260902233001 | 65 | 341 | 0.0 | 0.0 | 0.00 | 0.00 | 0.00 | 90 | 1025.7 |
| 20260902231559 | 66 | 341 | 0.0 | 0.0 | 0.00 | 0.00 | 0.00 | 90 | 1025.7 |
| 20260902230059 | 67 | 341 | 0.0 | 0.0 | 0.00 | 0.00 | 0.00 | 89 | 1025.7 |
| 20260902224602 | 67 | 341 | 0.0 | 0.0 | 0.00 | 0.00 | 0.00 | 89 | 1025.7 |
| 20260902223058 | 67 | 341 | 0.0 | 0.0 | 0.00 | 0.00 | 0.00 | 90 | 1025.7 |
| 20260902221605 | 68 | 341 | 0.0 | 0.0 | 0.00 | 0.00 | 0.00 | 89 | 1025.7 |
| 20260902220101 | 68 | 341 | 0.0 | 0.0 | 0.00 | 0.00 | 0.00 | 89 | 1025.7 |
| 20260902214603 | 68 | 341 | 0.0 | 0.0 | 0.00 | 0.00 | 0.00 | 89 | 1025.7 |
| 20260902213056 | 69 | 341 | 0.0 | 0.0 | 0.00 | 0.00 | 0.00 | 88 | 1025.7 |
| 20260902211610 | 69 | 341 | 0.0 | 0.0 | 0.00 | 0.00 | 0.00 | 87 | 1025.7 |
| 20260902210116 | 69 | 4 | 0.0 | 0.0 | 0.00 | 0.00 | 0.00 | 87 | 1025.7 |
| 20260902204557 | 70 | 4 | 0.0 | 1.0 | 0.00 | 0.00 | 0.00 | 87 | 1025.7 |
| 20260902203054 | 70 | 5 | 0.0 | 1.0 | 0.00 | 0.00 | 0.00 | 87 | 1025.7 |
| 20260902201608 | 70 | 3 | 0.0 | 0.0 | 0.00 | 0.00 | 0.00 | 86 | 1025.7 |
| 20260902200052 | 70 | 3 | 0.0 | 6.0 | 0.00 | 0.00 | 0.00 | 86 | 1025.7 |
| 20260902194552 | 70 | 334 | 0.0 | 0.0 | 0.00 | 0.00 | 0.00 | 85 | 1025.7 |
| 20260902193049 | 70 | 334 | 0.0 | 0.0 | 0.00 | 0.00 | 0.00 | 86 | 1025.7 |
| 20260902191553 | 70 | 331 | 0.0 | 0.0 | 0.00 | 0.00 | 0.00 | 87 | 1025.7 |
| 20260902190046 | 70 | 331 | 0.0 | 2.0 | 0.00 | 0.00 | 0.00 | 86 | 1025.7 |
| 20260902184546 | 69 | 289 | 0.0 | 4.0 | 0.00 | 0.00 | 0.00 | 87 | 1025.7 |
| 20260902183047 | 69 | 327 | 0.0 | 4.0 | 0.00 | 0.00 | 0.00 | 88 | 1025.7 |
| 20260902181549 | 69 | 331 | 0.0 | 0.0 | 0.00 | 0.00 | 0.00 | 88 | 1025.7 |
| 20260902180104 | 69 | 331 | 0.0 | 4.0 | 0.00 | 0.00 | 0.00 | 88 | 1025.7 |
| 20260902174542 | 69 | 330 | 0.0 | 3.0 | 0.00 | 0.00 | 0.00 | 88 | 1025.7 |
| 20260902173041 | 69 | 330 | 0.0 | 5.0 | 0.00 | 0.00 | 0.00 | 88 | 1025.7 |
| 20260902171543 | 69 | 324 | 0.0 | 5.0 | 0.00 | 0.00 | 0.00 | 88 | 1025.7 |
| 20260902170039 | 69 | 324 | 0.0 | 5.0 | 0.00 | 0.00 | 0.00 | 89 | 1025.7 |
| 20260902164538 | 69 | 335 | 0.0 | 0.0 | 0.00 | 0.00 | 0.00 | 90 | 1025.7 |
| 20260902163038 | 69 | 335 | 0.0 | 2.0 | 0.00 | 0.00 | 0.00 | 89 | 1025.7 |
| 20260902161538 | 69 | 338 | 0.0 | 0.0 | 0.00 | 0.00 | 0.00 | 89 | 1025.7 |
| 20260902160040 | 69 | 315 | 0.0 | 0.0 | 0.00 | 0.00 | 0.00 | 90 | 1025.7 |
| 20260902154535 | 69 | 315 | 0.0 | 2.0 | 0.00 | 0.00 | 0.00 | 88 | 1025.7 |
| 20260902153039 | 69 | 315 | 0.0 | 0.0 | 0.00 | 0.00 | 0.00 | 91 | 1025.7 |
| 20260902151531 | 68 | 315 | 0.0 | 0.0 | 0.00 | 0.00 | 0.00 | 91 | 1025.7 |
| 20260902150029 | 68 | 315 | 0.0 | 0.0 | 0.00 | 0.00 | 0.00 | 92 | 1025.7 |
| 20260902144535 | 67 | 315 | 0.0 | 6.0 | 0.00 | 0.00 | 0.00 | 92 | 1025.7 |
| 20260902143029 | 67 | 337 | 0.0 | 4.0 | 0.00 | 0.00 | 0.00 | 93 | 1025.7 |
| 20260902141524 | 67 | 342 | 0.0 | 0.0 | 0.00 | 0.00 | 0.00 | 95 | 1025.7 |
| 20260902140022 | 66 | 348 | 0.0 | 4.0 | 0.00 | 0.00 | 0.00 | 95 | 1025.7 |
| 20260902134517 | 66 | 347 | 0.0 | 2.0 | 0.00 | 0.00 | 0.00 | 96 | 1025.7 |
| 20260902133015 | 66 | 348 | 0.0 | 0.0 | 0.00 | 0.00 | 0.00 | 95 | 1025.7 |
| 20260902131511 | 65 | 349 | 0.0 | 6.0 | 0.00 | 0.00 | 0.00 | 95 | 1025.7 |
| 20260902130110 | 65 | 291 | 0.0 | 0.0 | 0.00 | 0.00 | 0.00 | 95 | 1025.7 |
| 20260902124508 | 65 | 291 | 0.0 | 0.0 | 0.00 | 0.00 | 0.00 | 95 | 1025.7 |
| 20260902123008 | 65 | 291 | 0.0 | 0.0 | 0.00 | 0.00 | 0.00 | 96 | 1025.7 |
| 20260902121504 | 64 | 291 | 0.0 | 0.0 | 0.00 | 0.00 | 0.00 | 96 | 1025.7 |
| 20260902120002 | 64 | 291 | 0.0 | 0.0 | 0.00 | 0.00 | 0.00 | 96 | 1025.7 |
| 20260902114501 | 64 | 291 | 0.0 | 0.0 | 0.00 | 0.00 | 0.00 | 95 | 1025.7 |
| 20260902113000 | 64 | 291 | 0.0 | 0.0 | 0.00 | 0.00 | 0.00 | 95 | 1025.7 |
| 20260902111559 | 64 | 291 | 0.0 | 0.0 | 0.00 | 0.00 | 0.00 | 96 | 1025.7 |
| 20260902110106 | 64 | 291 | 0.0 | 0.0 | 0.00 | 0.00 | 0.00 | 96 | 1025.7 |
| 20260902104557 | 64 | 291 | 0.0 | 0.0 | 0.00 | 0.00 | 0.00 | 95 | 1025.7 |
| 20260902103055 | 63 | 290 | 0.0 | 0.0 | 0.00 | 0.00 | 0.00 | 95 | 1025.7 |
| 20260902101553 | 63 | 290 | 0.0 | 0.0 | 0.00 | 0.00 | 0.00 | 96 | 1025.7 |
| 20260902100104 | 63 | 290 | 0.0 | 0.0 | 0.00 | 0.00 | 0.00 | 95 | 1025.7 |
| 20260902094605 | 63 | 290 | 0.0 | 0.0 | 0.00 | 0.00 | 0.00 | 95 | 1025.7 |
| 20260902093051 | 63 | 290 | 0.0 | 0.0 | 0.00 | 0.00 | 0.00 | 95 | 1025.7 |
| 20260902091558 | 63 | 290 | 0.0 | 0.0 | 0.00 | 0.00 | 0.00 | 95 | 1025.7 |
| 20260902090049 | 62 | 290 | 0.0 | 0.0 | 0.00 | 0.00 | 0.00 | 95 | 1025.7 |
| 20260902084549 | 62 | 290 | 0.0 | 0.0 | 0.00 | 0.00 | 0.00 | 95 | 1025.7 |